Weather History for Rhinelander, WI

Change the Weather History Date:

Thursday, December 20, 2012

  Actual Average Record
Temperature  
Mean Temperature 28 °F 15 °F  
Max Temperature 31 °F 24 °F 43 °F (1994)
Min Temperature 25 °F 7 °F -32 °F (1983)
Degree Days  
Heating Degree Days 37 50  
Month to date heating degree days 751 932  
Since 1 July heating degree days 2871 3066  
Cooling Degree Days 0 0  
Month to date cooling degree days 0 0  
Year to date cooling degree days 373 261  
Moisture  
Dew Point 25 °F    
Average Humidity 85    
Maximum Humidity 92    
Minimum Humidity 78    
Precipitation  
Precipitation 0.23 in 0.04 in 0.43 in (1978)
Month to date precipitation 0.73 0.97  
Year to date precipitation 29.97 30.93  
Snow  
Snow 3.80 in - 4.00 in (2004)
Month to date snowfall 8.8  
Since 1 July snowfall 14.3  
Snow Depth 3.00 in    
Sea Level Pressure  
Sea Level Pressure 29.67 in    
Wind  
Wind Speed 10 mph (North)    
Max Wind Speed 21 mph    
Max Gust Speed 36 mph    
Visibility 2 miles    
Events Fog , Snow    
T = Trace of Precipitation, MM = Missing Value Source: NWS Daily Summary

Daily Weather History Graph

Daily Weather History Graph

Search for Another Location

Airport:

Trip Planner

Search our weather history database for the weather conditions in past years. The results will help you decide how hot, cold, wet, or windy it might be!

Date:

Astronomy

Dec. 20, 2012 Rise Set
Actual Time 7:35 AM CST 4:16 PM CST
Civil Twilight 7:00 AM CST 4:50 PM CST
Nautical Twilight 6:23 AM CST 5:28 PM CST
Astronomical Twilight 5:46 AM CST 6:04 PM CST
Moon 11:49 AM CST 12:05 AM CST
Length of Visible Light 9h 50m
Length of Day
8h 41m
First Quarter, 55% of the Moon is Illuminated
Dec 20
First Quarter
Dec 28
Full
Jan 4
Last Quarter
Jan 11
New
Jan 18
First Quarter

Hourly Weather History & Observations

Time (CST) Temp. Windchill Dew Point Humidity Pressure Visibility Wind Dir Wind Speed Gust Speed Precip Events Conditions
12:30 AM 24.8 °F - 21.2 °F 86% 29.93 in 8.0 mi Calm Calm - N/A   Overcast
12:53 AM 25.0 °F - 21.9 °F 88% 29.99 in 8.0 mi Calm Calm - N/A   Overcast
1:53 AM 25.0 °F 19.3 °F 23.0 °F 92% 29.96 in 8.0 mi NNE 4.6 mph - N/A   Overcast
2:53 AM 26.1 °F - 23.0 °F 88% 29.96 in 7.0 mi Calm Calm - N/A   Overcast
3:53 AM 25.0 °F 19.3 °F 23.0 °F 92% 29.94 in 7.0 mi ENE 4.6 mph - N/A   Overcast
4:53 AM 25.0 °F 17.1 °F 21.9 °F 88% 29.89 in 3.0 mi NE 6.9 mph - 0.00 in Snow Light Snow
5:01 AM 24.8 °F 16.9 °F 23.0 °F 93% 29.81 in 2.5 mi NE 6.9 mph - 0.00 in Snow Light Snow
5:08 AM 24.8 °F 16.9 °F 23.0 °F 93% 29.81 in 3.0 mi NE 6.9 mph - 0.00 in Snow Light Snow
5:16 AM 24.8 °F 19.1 °F 23.0 °F 93% 29.81 in 2.0 mi NNE 4.6 mph - 0.00 in Snow Light Snow
5:23 AM 24.8 °F 16.9 °F 21.2 °F 86% 29.81 in 1.5 mi NNE 6.9 mph - 0.00 in Snow Light Snow
5:41 AM 24.8 °F 17.9 °F 23.0 °F 93% 29.80 in 1.0 mi NNE 5.8 mph - 0.00 in Snow Light Snow
5:53 AM 25.0 °F 19.3 °F 23.0 °F 92% 29.86 in 1.0 mi NNE 4.6 mph - 0.01 in Snow Light Snow
6:11 AM 24.8 °F 17.9 °F 23.0 °F 93% 29.79 in 0.8 mi NNE 5.8 mph - 0.01 in Snow Light Snow
6:20 AM 24.8 °F 20.5 °F 21.2 °F 86% 29.79 in 1.0 mi Variable 3.5 mph - 0.01 in Snow Light Snow
6:35 AM 24.8 °F 17.9 °F 21.2 °F 86% 29.78 in 1.2 mi North 5.8 mph - 0.02 in Snow Light Snow
6:51 AM 24.8 °F 17.9 °F 21.2 °F 86% 29.77 in 2.0 mi Variable 5.8 mph - 0.02 in Snow Light Snow
6:53 AM 25.0 °F 17.1 °F 21.9 °F 88% 29.84 in 1.8 mi North 6.9 mph - 0.02 in Snow Light Snow
7:41 AM 24.8 °F 17.9 °F 21.2 °F 86% 29.75 in 1.2 mi North 5.8 mph - 0.00 in Snow Light Snow
7:53 AM 25.0 °F 17.1 °F 21.9 °F 88% 29.81 in 1.5 mi NNE 6.9 mph - 0.01 in Snow Light Snow
8:49 AM 24.8 °F 16.9 °F 21.2 °F 86% 29.71 in 1.5 mi North 6.9 mph - 0.00 in Snow Light Snow
8:53 AM 25.0 °F 15.5 °F 21.9 °F 88% 29.78 in 1.5 mi North 9.2 mph - 0.00 in Snow Light Snow
9:01 AM 24.8 °F 16.9 °F 21.2 °F 86% 29.71 in 1.2 mi North 6.9 mph - 0.00 in Snow Light Snow
9:12 AM 24.8 °F 16.1 °F 21.2 °F 86% 29.71 in 0.5 mi North 8.1 mph - 0.00 in Fog , Snow Snow
9:20 AM 24.8 °F 16.1 °F 23.0 °F 93% 29.71 in 0.5 mi North 8.1 mph - 0.01 in Fog , Snow Snow
9:30 AM 24.8 °F 15.3 °F 23.0 °F 93% 29.70 in 0.8 mi NNE 9.2 mph - 0.01 in Snow Light Snow
9:42 AM 24.8 °F 16.9 °F 23.0 °F 93% 29.69 in 0.8 mi Variable 6.9 mph - 0.01 in Snow Light Snow
9:53 AM 26.1 °F 16.2 °F 23.0 °F 88% 29.75 in 0.8 mi North 10.4 mph 18.4 mph 0.01 in Snow Light Snow
10:14 AM 26.6 °F 16.8 °F 23.0 °F 86% 29.68 in 1.0 mi North 10.4 mph 16.1 mph 0.01 in Snow Light Snow
10:21 AM 26.6 °F 15.7 °F 23.0 °F 86% 29.67 in 0.8 mi North 12.7 mph 21.9 mph 0.01 in Snow Light Snow
10:36 AM 26.6 °F 17.5 °F 24.8 °F 93% 29.67 in 1.0 mi North 9.2 mph 17.3 mph 0.01 in Snow Light Snow
10:53 AM 27.0 °F 16.7 °F 23.0 °F 85% 29.72 in 1.2 mi North 11.5 mph 21.9 mph 0.01 in Snow Light Snow
11:26 AM 26.6 °F 16.2 °F 23.0 °F 86% 29.63 in 1.2 mi North 11.5 mph 21.9 mph 0.00 in Snow Light Snow
11:45 AM 26.6 °F 15.7 °F 23.0 °F 86% 29.62 in 0.5 mi North 12.7 mph 21.9 mph 0.00 in Fog , Snow Snow
11:53 AM 27.0 °F 17.3 °F 24.1 °F 89% 29.68 in 0.5 mi North 10.4 mph 23.0 mph 0.00 in Fog , Snow Snow
12:16 PM 26.6 °F 16.2 °F 24.8 °F 93% 29.59 in 0.8 mi North 11.5 mph 19.6 mph 0.00 in Snow Light Snow
12:25 PM 26.6 °F 15.7 °F 24.8 °F 93% 29.59 in 1.0 mi North 12.7 mph 23.0 mph 0.00 in Snow Light Snow
12:30 PM 26.6 °F 15.7 °F 24.8 °F 93% 29.58 in 0.8 mi North 12.7 mph 20.7 mph 0.00 in Snow Light Snow
12:48 PM 28.4 °F 18.5 °F 24.8 °F 86% 29.57 in 1.0 mi North 11.5 mph 24.2 mph 0.00 in Snow Light Snow
12:53 PM 28.0 °F 17.0 °F 24.1 °F 85% 29.63 in 1.0 mi North 13.8 mph 24.2 mph 0.00 in Snow Light Snow
1:34 PM 28.4 °F 20.4 °F 24.8 °F 86% 29.55 in 0.8 mi North 8.1 mph 20.7 mph 0.01 in Snow Light Snow
1:53 PM 28.9 °F 18.2 °F 26.1 °F 89% 29.61 in 0.8 mi North 13.8 mph 23.0 mph 0.01 in Snow Light Snow
2:00 PM 28.4 °F 18.0 °F 26.6 °F 93% 29.54 in 1.0 mi North 12.7 mph 23.0 mph 0.00 in Snow Light Snow
2:34 PM 28.4 °F 17.0 °F 26.6 °F 93% 29.53 in 0.8 mi North 15.0 mph 24.2 mph 0.00 in Snow Light Snow
2:53 PM 28.9 °F 19.2 °F 26.1 °F 89% 29.59 in 0.8 mi North 11.5 mph 27.6 mph 0.00 in Snow Light Snow
3:09 PM 30.2 °F 21.3 °F 26.6 °F 86% 29.53 in 1.0 mi North 10.4 mph 24.2 mph 0.01 in Snow Light Snow
3:33 PM 30.2 °F 20.8 °F 26.6 °F 86% 29.53 in 0.8 mi North 11.5 mph 23.0 mph 0.01 in Snow Light Snow
3:45 PM 30.2 °F 20.8 °F 26.6 °F 86% 29.53 in 0.8 mi North 11.5 mph 25.3 mph 0.01 in Snow Light Snow
3:53 PM 30.0 °F 20.5 °F 27.0 °F 88% 29.59 in 0.8 mi North 11.5 mph 19.6 mph 0.01 in Snow Light Snow
4:11 PM 30.2 °F 20.2 °F 26.6 °F 86% 29.53 in 1.0 mi North 12.7 mph 23.0 mph 0.00 in Snow Light Snow
4:18 PM 30.2 °F 21.9 °F 28.4 °F 93% 29.53 in 1.5 mi North 9.2 mph 19.6 mph 0.00 in Snow Light Snow
4:23 PM 30.2 °F 20.2 °F 28.4 °F 93% 29.53 in 2.0 mi NNW 12.7 mph 21.9 mph 0.00 in Snow Light Snow
4:32 PM 30.2 °F 20.8 °F 26.6 °F 86% 29.54 in 1.8 mi North 11.5 mph 26.5 mph 0.01 in Snow Light Snow
4:38 PM 30.2 °F 20.8 °F 28.4 °F 93% 29.54 in 2.0 mi North 11.5 mph 20.7 mph 0.01 in Snow Light Snow
4:53 PM 30.9 °F 21.7 °F 28.0 °F 89% 29.60 in 2.0 mi NNW 11.5 mph 23.0 mph 0.01 in Snow Light Snow
5:49 PM 30.2 °F 21.3 °F 28.4 °F 93% 29.55 in 3.0 mi North 10.4 mph 27.6 mph 0.00 in Snow Light Snow
5:50 PM 30.2 °F 21.9 °F 28.4 °F 93% 29.55 in 3.0 mi North 9.2 mph 26.5 mph 0.00 in Snow Light Snow
5:53 PM 30.9 °F 23.5 °F 28.0 °F 89% 29.61 in 3.0 mi North 8.1 mph 21.9 mph 0.00 in Snow Light Snow
6:11 PM 30.2 °F 21.3 °F 26.6 °F 86% 29.55 in 2.5 mi NNW 10.4 mph 25.3 mph 0.00 in Snow Light Snow
6:33 PM 30.2 °F 21.9 °F 28.4 °F 93% 29.56 in 2.5 mi North 9.2 mph 20.7 mph 0.00 in Snow Light Snow
6:53 PM 30.9 °F 20.7 °F 27.0 °F 85% 29.63 in 2.5 mi North 13.8 mph 21.9 mph 0.00 in Snow Light Snow
6:59 PM 30.2 °F 19.8 °F 26.6 °F 86% 29.57 in 3.0 mi North 13.8 mph 21.9 mph 0.00 in Snow Light Snow
7:02 PM 30.2 °F 20.8 °F 26.6 °F 86% 29.57 in 3.0 mi North 11.5 mph 21.9 mph 0.00 in Snow Light Snow
7:53 PM 30.9 °F 22.2 °F 27.0 °F 85% 29.64 in 5.0 mi NNW 10.4 mph 24.2 mph 0.00 in Snow Light Snow
8:30 PM 30.2 °F 21.9 °F 26.6 °F 86% 29.59 in 1.8 mi North 9.2 mph 18.4 mph 0.00 in Snow Light Snow
8:34 PM 30.2 °F 22.6 °F 26.6 °F 86% 29.59 in 1.2 mi North 8.1 mph 18.4 mph 0.00 in Snow Light Snow
8:53 PM 30.0 °F 21.1 °F 27.0 °F 88% 29.66 in 1.8 mi NNW 10.4 mph 17.3 mph 0.01 in Snow Light Snow
9:02 PM 30.2 °F 18.9 °F 26.6 °F 86% 29.60 in 2.0 mi NNW 16.1 mph 27.6 mph 0.00 in Snow Light Snow
9:09 PM 30.2 °F 18.5 °F 26.6 °F 86% 29.60 in 1.8 mi NNW 17.3 mph 27.6 mph 0.00 in Snow Light Snow
9:19 PM 30.2 °F 21.3 °F 26.6 °F 86% 29.60 in 1.8 mi NNW 10.4 mph 23.0 mph 0.00 in Snow Light Snow
9:29 PM 28.4 °F 16.6 °F 26.6 °F 93% 29.61 in 2.0 mi NNW 16.1 mph 25.3 mph 0.00 in Snow Light Snow
9:40 PM 28.4 °F 16.6 °F 24.8 °F 86% 29.61 in 3.0 mi NNW 16.1 mph 27.6 mph 0.00 in Snow Light Snow
9:53 PM 28.9 °F 17.3 °F 25.0 °F 85% 29.67 in 4.0 mi NW 16.1 mph 26.5 mph 0.00 in Snow Light Snow
10:53 PM 28.0 °F 17.0 °F 23.0 °F 81% 29.68 in 9.0 mi NNW 13.8 mph 26.5 mph 0.00 in   Overcast
11:53 PM 27.0 °F 17.3 °F 21.9 °F 81% 29.71 in 10.0 mi NNW 10.4 mph 27.6 mph 0.00 in   Overcast